User: anonymous   Login
Location: Passau
(48.5830°N, 13.4830°E)
Time: 10:59:58
(UTC+01:00)
Language:

FO-99 - Orbit

View from above orbital plane
View from above orbital plane
View from above satellite
View from above satellite

Ground track
Ground track

The orbit data is extracted from the following two-line orbital elements,

1 43937U 19003F   21334.85604230  .00003947  00000-0  15131-3 0  9997
2 43937  97.1580  11.2867 0023737 138.5885 221.7160 15.26805512159642
Epoch (UTC): 30 November 2021 20:32:42
Eccentricity: 0.0023737
inclination: 97.1580°
perigee height: 469 km
apogee height: 501 km
right ascension of ascending node: 11.2867°
argument of perigee: 138.5885°
revolutions per day: 15.26805512
mean anomaly at epoch: 221.7160°
orbit number at epoch: 15964

The dashed part of the orbit path shows where the satellite is in the earth's shadow,  

DLR